Temperature
19 19 19 19 19 19 19 19 19 19 19 19 19 19 19 19 19 19 19 19 19 19 19 18 18 19 19 19 18 19 19 19 19 19 19 19 19 18 18 18 18 18 18
19 20 19 19 19 19 19 19 19 19 19 19 19 18 19 19 19 19 19 19 19 19 18 18 18 18 18 18 18 18 18 19 19 18 18 18 18 18 18 18 18 18 18
19 20 19 19 19 19 19 19 19 19 19 19 19 18 18 18 19 19 19 19 18 18 18 18 18 18 18 18 18 19 19 19 18 18 18 18 18 18 18 18 18 18 18
19 19 19 19 19 19 19 19 19 19 19 19 19 18 18 18 18 18 18 18 18 18 18 18 18 18 18 18 18 18 18 18 18 18 18 18 18 18 18 18 18 18 18
19 19 20 19 19 19 19 19 19 19 19 19 19 19 18 18 18 18 18 18 18 18 18 18 18 18 18 18 18 18 18 18 18 18 18 18 18 18 18 18 18 18 18
19 19 20 20 19 19 19 19 19 19 19 19 19 19 19 18 18 18 18 18 18 18 18 18 18 18 18 18 18 18 18 18 18 18 18 18 18 18 18 18 18 18 18
20 19 20 20 20 19 19 19 19 19 19 19 19 19 19 18 18 18 18 18 18 18 18 18 18 18 18 18 19 19 19 18 18 18 18 18 18 18 18 18 18 18 18
20 20 20 20 20 20 19 19 19 19 19 19 19 19 19 19 18 18 18 18 18 18 18 18 18 18 18 19 19 19 19 19 18 18 18 18 19 18 18 18 18 18 18
20 20 20 20 20 20 19 19 19 19 19 19 19 19 19 19 19 19 19 19 19 19 19 19 19 19 19 19 19 19 19 19 19 19 18 19 19 19 18 18 18 18 17
20 20 20 19 19 19 19 19 19 19 19 19 19 19 19 19 19 19 19 19 19 19 19 19 19 19 19 19 19 19 19 19 19 19 19 19 19 19 19 18 18 18 17
20 20 20 20 19 19 19 19 19 19 19 19 19 19 19 18 18 18 19 19 19 19 19 19 19 19 19 19 19 19 19 19 19 19 19 19 19 19 19 18 18 18 18
20 20 20 20 20 19 19 19 19 19 19 19 19 18 18 18 18 18 19 19 19 19 19 19 19 19 19 19 19 19 19 19 19 19 19 19 19 19 19 19 18 18 18
21 21 20 20 20 20 19 19 19 19 19 19 19 18 19 19 18 19 19 19 19 19 19 19 19 18 18 18 19 19 19 19 19 19 19 19 19 19 19 19 18 18 18
21 21 21 20 20 20 19 19 19 19 19 19 19 19 19 19 19 18 18 18 18 18 19 19 19 19 19 19 19 19 19 19 19 19 19 19 19 19 19 19 18 18 18
21 21 20 20 20 20 19 19 19 19 19 19 19 19 19 19 19 19 19 19 19 19 19 19 19 19 19 19 19 19 19 19 19 19 19 19 19 19 19 19 18 18 18
21 21 20 20 20 20 19 19 19 19 19 19 19 19 19 19 19 19 19 19 19 19 19 19 19 19 19 19 19 19 19 19 19 19 19 19 19 19 19 19 19 18 18
21 21 20 20 20 20 19 19 19 19 19 19 19 19 19 19 19 19 19 19 19 19 19 19 19 19 19 19 19 19 19 19 19 19 19 19 19 19 19 19 19 19 18
21 20 20 20 20 20 19 19 19 19 19 19 19 19 19 19 19 19 19 19 19 19 19 19 19 19 19 19 19 19 19 19 19 19 19 19 19 19 19 19 19 19 19
21 20 20 20 20 20 20 19 19 19 19 19 19 19 19 19 19 19 19 19 19 19 19 19 19 19 19 19 19 19 20 19 19 19 19 19 19 19 19 19 18 18 18
21 20 20 20 20 20 19 19 19 19 19 19 19 19 19 19 19 19 19 19 19 19 19 19 19 19 19 19 19 20 20 20 20 20 19 19 19 19 19 18 18 18 18
21 20 20 20 20 20 19 19 19 19 19 19 19 19 19 19 19 19 19 19 19 19 19 19 19 19 19 19 19 19 20 20 20 20 20 19 19 19 19 19 18 18 18
21 20 20 20 20 20 20 20 19 20 20 20 20 19 19 19 19 19 19 19 19 19 19 19 19 19 19 19 19 19 19 20 20 20 20 20 19 19 19 19 19 18 18
22 21 21 20 20 20 20 20 20 20 20 20 20 20 19 19 19 19 19 19 19 19 19 19 19 19 19 19 19 19 19 20 20 20 20 20 20 20 19 19 19 19 18
22 21 21 21 20 20 20 20 20 20 20 20 20 20 20 19 19 19 19 19 19 19 19 19 19 19 19 19 19 19 19 19 19 19 20 20 20 20 19 19 19 19 19
23 22 21 21 20 20 20 20 20 20 20 20 20 20 20 19 19 19 19 19 19 19 19 19 19 19 19 19 19 19 19 19 19 19 19 20 20 20 20 19 19 19 19
23 22 21 21 21 20 20 20 20 20 20 20 20 20 20 19 19 19 19 19 19 19 19 19 19 19 19 19 19 19 19 19 19 19 19 19 19 20 19 19 19 19 19
Wind_Speed
11 13 14 15 16 16 16 16 16 16 15 15 15 15 15 15 15 15 15 15 14 14 13 12 11 11 11 11 11 11 10 10 11 11 11 11 11 10 10 9 11 11 13
15 15 15 15 16 16 16 15 15 15 15 15 15 15 15 15 14 14 14 14 14 13 12 12 11 10 10 10 10 9 8 8 8 9 10 10 10 9 8 9 11 11 12
16 16 16 16 15 15 15 15 14 14 15 14 14 14 14 14 13 13 13 13 13 12 11 10 10 10 9 9 8 7 6 5 6 7 8 8 9 9 10 11 11 11 11
16 15 16 16 15 15 15 14 14 14 13 14 13 13 13 13 12 12 12 12 12 11 10 9 9 8 8 7 6 5 4 3 3 4 4 7 10 10 9 10 10 10 10
15 16 16 16 16 15 14 14 13 13 12 13 13 12 12 12 12 12 12 11 11 10 9 8 8 7 7 6 5 3 2 2 3 3 2 10 12 11 10 9 9 9 9
16 17 16 16 15 14 14 13 13 12 12 12 11 11 11 11 11 11 11 10 9 9 8 8 7 6 6 5 4 2 2 3 5 4 6 11 12 11 10 9 8 8 8
16 16 15 15 15 14 13 13 12 11 11 10 10 10 10 10 9 9 9 8 8 7 7 6 6 5 4 4 2 2 3 5 7 2 7 10 13 12 10 9 8 8 7
16 15 15 15 14 14 13 12 11 10 10 9 9 9 8 8 8 8 7 7 6 6 5 5 4 4 3 3 2 3 5 7 4 3 7 11 14 12 10 9 8 8 7
14 14 14 14 13 13 12 12 11 10 9 9 8 7 7 7 7 7 6 6 5 5 4 4 4 4 3 3 3 4 6 8 8 3 7 11 14 12 10 9 8 8 8
10 11 12 13 13 13 12 11 11 10 9 8 7 7 7 7 7 7 6 5 5 4 4 4 4 4 4 5 6 7 8 9 8 3 8 11 15 12 11 9 9 8 8
9 9 9 10 11 12 12 12 11 10 9 8 7 7 7 6 8 7 6 6 6 5 5 5 6 6 6 7 9 9 8 8 6 4 8 14 15 12 11 10 9 8 8
10 9 8 8 8 9 9 10 9 9 9 7 6 6 5 4 5 6 8 7 6 6 6 8 8 8 9 8 9 11 8 8 4 5 10 16 15 13 11 10 9 9 8
11 9 8 7 6 6 6 7 5 6 7 6 4 5 4 3 4 5 6 6 6 7 6 6 8 7 6 5 5 7 7 5 3 6 11 16 15 13 12 11 10 9 9
11 9 8 7 5 4 4 4 5 4 4 4 4 2 3 1 1 2 2 3 3 3 3 2 3 4 2 2 3 3 4 3 1 6 11 15 15 14 12 11 10 10 9
10 9 9 7 5 4 3 1 4 3 3 5 5 2 1 1 1 1 1 1 1 2 2 1 1 1 2 3 4 3 2 3 3 7 10 14 15 14 13 12 11 11 10
10 9 8 8 6 4 3 2 1 3 3 3 5 4 2 1 1 0 0 0 1 1 1 1 1 2 2 2 2 2 3 3 3 6 10 12 15 15 14 13 13 12 12
9 9 9 8 8 5 4 4 3 3 4 3 4 5 3 2 1 1 1 1 2 3 2 2 3 2 2 2 3 3 3 3 3 4 8 10 12 14 14 14 14 13 13
10 9 8 8 9 6 4 2 2 3 3 3 3 4 5 4 3 3 2 1 2 3 2 1 2 2 1 2 2 3 2 2 3 4 6 8 10 11 14 16 15 14 14
10 9 8 6 8 7 5 3 2 2 2 2 3 3 4 4 5 4 2 1 2 1 2 2 1 1 2 2 3 4 3 2 3 4 4 6 8 10 12 15 17 16 15
10 9 8 7 7 6 5 4 3 3 3 3 3 3 4 4 5 4 3 2 2 1 1 1 2 3 3 3 5 3 3 4 4 3 4 4 6 8 10 12 14 14 16
11 10 9 8 7 6 4 4 4 4 4 4 4 5 4 4 4 2 3 1 2 1 1 2 2 4 3 3 3 4 3 4 4 4 3 2 3 5 8 10 12 12 13
12 10 9 9 9 7 6 4 4 4 4 3 2 3 4 4 4 4 3 3 2 2 2 2 2 3 3 3 2 2 2 2 2 4 3 3 3 2 3 7 10 11 11
13 12 11 9 9 8 7 5 4 3 2 2 3 3 4 4 4 3 3 4 3 3 2 3 2 3 3 3 1 1 2 1 2 2 3 3 3 3 3 3 6 8 10
14 13 10 10 9 8 7 6 6 5 4 3 3 3 3 3 3 3 3 3 3 3 3 3 2 3 3 3 2 1 2 1 2 2 3 2 4 4 3 3 3 6 8
14 13 12 10 9 8 8 6 5 4 3 2 2 3 3 3 3 3 3 3 3 3 2 2 2 2 2 3 3 2 3 2 3 3 3 3 2 2 3 4 3 4 6
11 11 12 11 9 8 8 7 6 5 3 2 2 2 3 3 3 3 4 3 3 3 2 2 3 3 3 4 3 3 3 2 2 3 4 4 3 3 2 2 2 3 4
Wind_Direction
106 107 103 100 98 97 97 98 97 96 95 93 93 96 97 98 99 99 102 104 105 104 102 100 99 97 92 89 88 89 91 92 95 98 99 98 96 97 100 106 108 103 107
113 110 106 103 101 99 99 100 99 99 98 97 95 96 98 100 101 101 102 102 103 103 101 99 97 97 96 94 93 95 100 104 108 113 114 108 102 99 98 96 98 109 111
115 115 109 104 103 102 100 100 101 100 101 99 97 97 98 99 101 104 105 103 103 103 101 100 98 97 100 100 100 105 112 119 126 135 137 122 112 104 98 99 105 114 114
117 114 109 108 106 104 102 100 100 101 101 99 99 98 98 99 101 105 105 106 106 106 105 103 101 100 103 105 106 111 127 144 162 179 172 138 118 113 109 110 114 118 120
112 109 111 112 109 107 105 104 103 101 102 102 101 100 100 100 100 101 104 107 109 110 110 108 106 105 106 109 110 121 164 213 246 247 134 111 112 122 121 122 123 123 126
116 114 115 115 112 111 110 108 107 105 104 105 103 102 102 103 104 104 105 107 109 111 114 117 118 113 110 111 121 155 229 263 273 229 139 121 120 130 131 132 132 131 134
117 116 119 119 117 116 113 111 110 109 108 107 107 105 104 106 108 109 109 110 112 114 117 123 125 122 120 125 148 210 260 279 265 173 118 118 128 138 139 141 141 139 140
119 119 123 126 123 120 118 117 115 116 114 113 113 113 112 113 114 116 117 118 121 123 125 129 135 141 146 157 185 236 270 285 282 134 127 123 137 142 145 148 148 147 150
122 128 131 133 131 128 126 125 124 123 124 124 124 125 125 129 132 131 129 129 132 136 140 149 160 170 178 193 216 244 267 279 289 170 130 129 144 145 147 150 153 152 154
122 128 135 140 140 142 139 139 137 136 138 139 143 149 148 151 154 153 148 146 150 158 166 176 186 197 206 218 230 245 265 282 270 177 136 141 148 148 150 154 158 159 160
128 133 136 139 146 149 147 145 151 152 155 158 167 176 172 172 164 161 145 154 170 183 192 203 211 215 221 229 234 241 257 261 253 139 130 146 151 152 155 159 163 166 168
143 139 141 142 146 148 141 144 159 157 155 168 157 165 177 182 153 138 151 173 190 202 209 219 227 229 230 226 228 232 240 247 229 146 143 154 156 158 161 167 171 174 177
143 145 147 138 131 128 127 139 140 140 146 157 148 157 158 147 145 147 159 179 201 210 218 214 220 230 229 221 219 215 232 247 222 141 152 159 161 164 168 174 179 183 185
144 149 139 135 121 108 113 132 144 138 145 143 141 162 136 119 148 137 152 163 187 204 211 213 215 227 243 261 244 232 237 233 201 135 161 167 169 171 175 181 186 189 192
145 144 133 125 119 115 111 135 131 128 141 138 141 139 122 121 101 117 111 99 239 214 199 243 257 221 227 242 248 241 237 228 207 161 162 176 177 179 183 188 193 197 200
149 145 140 142 135 134 152 153 149 147 146 141 148 151 185 147 82 10 140 7 311 293 253 268 279 265 259 258 256 244 232 234 212 165 163 183 186 186 190 195 199 204 205
152 150 152 158 150 155 173 183 168 178 165 155 149 159 180 170 201 247 214 230 271 273 242 238 264 263 257 254 246 251 237 228 220 174 174 180 184 194 199 202 205 208 210
157 155 168 170 153 159 178 192 178 181 162 160 160 171 173 179 218 247 232 220 246 259 242 245 265 279 280 274 266 256 231 211 217 200 200 189 183 192 201 207 208 209 212
159 158 166 162 152 164 174 192 206 171 162 185 188 186 181 196 217 229 239 235 243 250 270 290 3 316 283 282 273 249 231 213 216 217 206 196 191 188 189 200 207 210 212
159 160 166 167 160 166 175 184 202 189 195 206 198 186 201 208 225 239 229 215 237 243 274 308 311 286 276 268 275 280 246 222 212 209 215 207 197 190 186 193 198 211 214
164 164 169 175 167 174 184 194 196 197 207 211 192 180 195 221 223 229 268 226 231 232 279 290 284 280 273 264 271 284 261 245 217 205 203 217 213 198 194 185 188 200 206
168 168 172 177 176 185 189 195 203 202 209 207 183 165 200 221 234 219 225 253 240 223 240 255 264 282 291 294 291 308 300 269 270 221 187 208 221 204 211 198 188 195 195
173 175 179 180 181 190 188 193 213 198 217 203 185 186 204 217 233 245 205 230 246 236 224 234 248 259 272 286 289 287 311 309 301 251 219 195 201 202 215 210 194 193 195
177 177 175 176 182 185 190 202 208 206 215 209 195 183 191 208 223 227 230 230 245 250 241 248 216 252 254 272 276 260 255 283 298 313 296 233 209 195 199 230 203 183 188
176 176 174 175 179 183 193 202 214 221 221 212 191 178 200 205 222 229 217 224 233 249 252 274 289 280 275 275 277 280 276 259 246 252 285 304 297 232 204 205 203 186 184
171 172 170 171 179 183 191 199 210 220 228 230 218 201 226 212 220 227 218 214 228 244 250 254 257 260 263 281 290 289 278 272 267 258 275 282 275 269 241 209 196 184 175
Height
1523 1523 1524 1525 1525 1526 1527 1528 1529 1530 1531 1532 1533 1534 1535 1536 1537 1538 1540 1541 1542 1543 1545 1546 1547 1548 1549 1551 1552 1553 1554 1554 1555 1556 1556 1557 1558 1558 1559 1559 1560 1560 1561
1524 1525 1526 1527 1528 1529 1530 1531 1532 1533 1533 1534 1535 1536 1537 1538 1540 1541 1542 1543 1544 1545 1546 1547 1549 1550 1551 1552 1553 1554 1555 1556 1556 1557 1558 1558 1559 1560 1560 1560 1561 1562 1562
1525 1526 1528 1529 1530 1531 1532 1533 1534 1535 1536 1537 1538 1539 1540 1541 1542 1543 1544 1545 1546 1547 1548 1549 1550 1551 1552 1553 1554 1555 1556 1557 1558 1558 1559 1560 1560 1561 1561 1562 1562 1563 1564
1527 1528 1530 1531 1532 1533 1534 1535 1536 1537 1538 1539 1540 1541 1542 1543 1544 1545 1546 1547 1548 1549 1550 1551 1552 1553 1554 1554 1555 1557 1558 1559 1559 1560 1561 1561 1562 1562 1562 1563 1563 1564 1565
1529 1530 1531 1533 1534 1535 1536 1537 1538 1539 1540 1541 1542 1543 1544 1545 1546 1547 1548 1549 1549 1550 1551 1552 1553 1554 1555 1556 1557 1557 1559 1560 1560 1561 1562 1563 1563 1563 1563 1564 1564 1565 1565
1531 1531 1533 1534 1536 1537 1538 1539 1540 1541 1542 1543 1544 1545 1546 1547 1547 1548 1549 1550 1551 1552 1552 1553 1554 1555 1556 1557 1557 1558 1559 1560 1561 1562 1563 1563 1564 1564 1564 1564 1565 1566 1566
1533 1533 1535 1536 1537 1539 1540 1541 1542 1543 1544 1545 1546 1547 1548 1548 1549 1550 1551 1551 1552 1553 1553 1554 1555 1556 1557 1557 1558 1559 1560 1561 1562 1563 1563 1564 1564 1564 1565 1565 1565 1566 1567
1534 1535 1536 1538 1539 1541 1542 1543 1544 1545 1546 1547 1548 1549 1549 1550 1551 1551 1552 1553 1553 1554 1554 1555 1556 1557 1557 1558 1559 1560 1561 1561 1563 1564 1563 1564 1564 1564 1565 1565 1566 1566 1567
1536 1537 1538 1540 1541 1542 1544 1545 1546 1547 1547 1548 1549 1550 1551 1551 1552 1553 1554 1554 1554 1555 1555 1556 1557 1557 1558 1559 1560 1561 1561 1562 1563 1564 1563 1564 1564 1565 1565 1565 1566 1566 1567
1537 1539 1540 1541 1542 1544 1545 1546 1547 1548 1549 1550 1551 1552 1552 1553 1553 1554 1555 1555 1556 1556 1556 1557 1558 1558 1559 1560 1560 1561 1562 1562 1563 1564 1563 1564 1564 1565 1565 1565 1566 1566 1567
1538 1540 1542 1543 1544 1545 1546 1548 1548 1549 1550 1551 1552 1553 1553 1554 1555 1555 1556 1556 1557 1557 1557 1558 1558 1559 1560 1560 1561 1562 1562 1562 1563 1563 1563 1564 1564 1564 1564 1565 1565 1566 1567
1538 1540 1542 1544 1546 1547 1549 1549 1550 1551 1551 1552 1553 1554 1554 1555 1556 1557 1557 1557 1558 1558 1558 1559 1559 1559 1560 1560 1561 1562 1562 1562 1563 1563 1563 1563 1563 1564 1564 1564 1565 1566 1566
1538 1540 1542 1544 1546 1548 1549 1550 1551 1552 1553 1554 1554 1555 1556 1557 1557 1558 1558 1558 1558 1558 1559 1559 1559 1559 1560 1561 1561 1562 1562 1562 1562 1562 1562 1563 1563 1563 1564 1564 1564 1565 1566
1538 1541 1543 1545 1546 1548 1549 1551 1552 1553 1554 1555 1555 1556 1557 1557 1558 1558 1559 1559 1559 1559 1559 1560 1560 1560 1560 1561 1561 1561 1562 1561 1562 1561 1562 1562 1562 1563 1563 1563 1564 1564 1565
1538 1541 1543 1544 1546 1548 1549 1551 1552 1553 1554 1555 1555 1556 1557 1557 1558 1559 1559 1559 1560 1560 1560 1560 1560 1560 1560 1560 1561 1561 1561 1561 1561 1561 1561 1561 1561 1562 1562 1562 1563 1563 1564
1538 1541 1542 1544 1546 1547 1549 1550 1552 1553 1554 1555 1555 1556 1557 1557 1558 1558 1559 1559 1559 1560 1560 1560 1560 1560 1560 1560 1560 1560 1560 1560 1560 1560 1560 1560 1560 1561 1561 1561 1562 1562 1563
1538 1540 1542 1544 1546 1547 1549 1550 1552 1553 1554 1555 1555 1556 1556 1557 1558 1558 1559 1559 1559 1559 1559 1559 1559 1560 1559 1559 1559 1559 1559 1559 1559 1559 1559 1559 1559 1559 1560 1560 1560 1561 1561
1537 1540 1542 1544 1545 1546 1548 1550 1552 1553 1554 1554 1555 1556 1556 1556 1557 1557 1558 1558 1559 1559 1559 1559 1559 1559 1559 1559 1558 1558 1558 1558 1558 1558 1557 1557 1557 1558 1558 1558 1559 1559 1559
1536 1539 1541 1543 1545 1546 1548 1549 1551 1552 1553 1554 1555 1555 1556 1556 1556 1557 1557 1557 1558 1558 1558 1558 1558 1558 1558 1557 1557 1557 1557 1557 1556 1556 1556 1557 1556 1556 1556 1556 1557 1557 1558
1536 1538 1540 1542 1544 1545 1547 1549 1550 1552 1552 1553 1554 1554 1555 1555 1555 1556 1556 1556 1557 1557 1557 1557 1557 1557 1557 1557 1556 1556 1556 1556 1555 1555 1555 1555 1555 1555 1554 1554 1555 1555 1556
1534 1536 1538 1540 1542 1544 1546 1547 1549 1550 1552 1553 1553 1553 1554 1554 1555 1555 1555 1555 1556 1556 1556 1556 1556 1556 1556 1556 1556 1555 1554 1554 1554 1554 1553 1553 1554 1553 1553 1553 1553 1553 1553
1532 1534 1537 1539 1540 1542 1544 1546 1548 1549 1550 1552 1552 1553 1553 1553 1554 1554 1553 1554 1554 1555 1555 1555 1555 1555 1555 1555 1555 1554 1554 1554 1553 1552 1552 1552 1552 1552 1552 1552 1552 1551 1551
1530 1532 1534 1536 1538 1541 1543 1545 1547 1548 1549 1550 1551 1551 1552 1552 1552 1552 1552 1552 1553 1553 1554 1554 1553 1553 1553 1553 1554 1554 1553 1552 1551 1551 1551 1550 1550 1550 1550 1550 1550 1550 1550
1527 1530 1532 1534 1536 1539 1541 1543 1545 1546 1548 1549 1549 1550 1550 1550 1550 1550 1551 1551 1551 1552 1552 1552 1552 1552 1552 1552 1552 1552 1552 1551 1551 1550 1550 1549 1549 1548 1548 1548 1548 1548 1548
1525 1528 1530 1532 1534 1537 1539 1541 1543 1545 1546 1547 1548 1548 1549 1549 1549 1549 1549 1549 1549 1550 1550 1550 1550 1550 1550 1550 1550 1550 1550 1550 1550 1550 1548 1547 1547 1546 1546 1545 1545 1545 1545
1523 1526 1528 1530 1532 1534 1536 1539 1540 1542 1544 1545 1545 1546 1547 1548 1547 1547 1547 1546 1547 1548 1548 1548 1548 1548 1548 1548 1548 1548 1548 1548 1547 1547 1546 1545 1544 1544 1543 1542 1542 1542 1543